Location: Spring Creek
(38.2870°N, 100.2160°W)
Time: 09:16:28
(UTC+00:00)

ARIANE 5 R/B - Pass Details

Date: 08 May 2021
Orbit: 620 x 656 km, 98.1° (Epoch: 13 June)

Event Time Altitude Azimuth Distance (km) Brightness Sun altitude
Exits shadow 03:27:45 29° 83° (E) 1,134 3.5 -19.0°
Maximum altitude 03:28:14 30° 70° (ENE) 1,115 3.6 -19.0°
Drops below altitude 10° 03:32:01 10° 9° (N) 1,995 5.6 -19.6°
Sets 03:34:24 0° 359° (N) 2,904 6.7 -19.9°
